Location: Sternwarte ZA, Rosenfeld-Brittheim
(48.2889°N, 8.6789°E)
Time: 17:37:11
(UTC+01:00)

ISS - Pass Details

Date: 22 January 2020
Orbit: 415 x 421 km, 51.6° (Epoch: 18 January)

Event Time Altitude Azimuth Distance (km) Brightness Sun altitude
Rises 18:22:08 0° 208° (SSW) 2,353 0.8 -12.2°
Reaches altitude 10° 18:24:31 10° 192° (SSW) 1,493 -0.6 -12.6°
Maximum altitude 18:27:10 22° 140° (SE) 977 -2.1 -13.0°
Enters shadow 18:28:17 18° 112° (ESE) 1,087 -2.1 -13.2°
